MDT,Max TemperatureF,Mean TemperatureF,Min TemperatureF,Max Dew PointF,MeanDew PointF,Min DewpointF,Max Humidity, Mean Humidity, Min Humidity, Max Sea Level PressureIn, Mean Sea Level PressureIn, Min Sea Level PressureIn, Max VisibilityMiles, Mean VisibilityMiles, Min VisibilityMiles, Max Wind SpeedMPH, Mean Wind SpeedMPH, Max Gust SpeedMPH,PrecipitationIn, CloudCover, Events, WindDirDegrees
2012-10-1,75,53,31,32,28,26,78,49,19,30.38,30.20,29.92,10,9,4,16,5,23,0.00,0,,260
2012-10-2,70,55,40,31,25,13,44,28,11,30.04,29.83,29.74,10,10,8,23,9,36,0.00,0,,285
2012-10-3,42,34,25,29,24,20,85,65,44,30.47,30.24,29.84,10,10,9,24,9,32,T,6,,354
2012-10-4,42,30,18,24,19,13,84,62,40,30.45,30.38,30.24,10,10,9,15,4,20,0.00,5,,163
2012-10-5,43,31,19,24,19,7,78,50,22,30.47,30.36,30.29,10,10,10,20,6,25,0.00,5,,326
2012-10-6,48,31,13,20,11,7,67,44,20,30.49,30.41,30.33,10,10,10,16,4,21,0.00,0,,92
2012-10-7,60,38,15,23,17,11,80,50,19,30.33,30.19,30.05,10,10,10,15,4,18,0.00,0,,45
2012-10-8,60,42,23,32,21,14,68,48,28,30.06,29.99,29.90,10,7,2,18,5,26,0.00,3,,335
2012-10-9,56,42,27,31,27,23,72,52,32,30.14,30.09,29.99,10,10,10,6,3,7,0.00,4,,268
2012-10-10,66,45,23,27,23,18,84,52,20,30.12,30.02,29.93,10,9,2,14,5,20,0.00,0,,330
2012-10-11,61,43,24,33,28,21,100,66,32,30.18,30.06,29.97,10,8,0,14,4,17,0.00,1,Fog,152
2012-10-12,70,47,23,28,19,12,81,46,11,30.00,29.88,29.76,10,9,6,20,5,28,0.00,0,,280
2012-10-13,54,47,40,40,30,18,83,56,29,30.23,30.04,29.82,10,8,4,20,5,28,0.02,6,Rain,311
2012-10-14,63,50,36,35,31,26,82,54,25,30.27,30.14,29.94,10,10,10,22,5,28,0.00,2,,243
2012-10-15,58,50,42,37,33,28,65,52,38,29.96,29.88,29.82,10,10,6,20,8,26,T,6,Rain,251
2012-10-16,58,47,35,43,32,15,66,50,34,29.93,29.66,29.46,10,9,1,37,15,46,0.21,7,Rain,299
2012-10-17,45,38,30,21,18,13,63,45,27,30.30,30.12,29.94,10,10,10,28,11,35,0.00,3,,317
2012-10-18,57,38,18,27,19,12,84,54,23,30.39,30.28,30.11,10,10,10,13,2,20,0.00,1,,154
2012-10-19,61,45,28,42,30,23,89,62,35,30.07,29.89,29.66,10,10,9,24,6,32,0.03,4,Rain,252
2012-10-20,50,41,32,42,30,18,100,73,46,29.83,29.69,29.60,10,10,2,33,11,44,0.04,6,Rain-Snow,302
2012-10-21,46,37,27,23,19,15,81,56,31,29.94,29.88,29.82,10,10,10,10,3,14,0.00,4,,298
2012-10-22,40,31,21,32,26,18,89,74,58,29.87,29.70,29.54,10,9,1,18,5,28,0.02,5,Rain-Snow,154
2012-10-23,37,28,19,29,24,18,92,72,52,30.00,29.80,29.66,10,8,1,20,3,24,T,5,Snow,244
2012-10-24,38,25,12,25,18,10,92,66,40,30.20,30.07,29.91,10,10,10,13,3,15,0.00,2,,170
2012-10-25,31,26,20,23,22,18,88,79,69,30.48,30.25,30.12,10,6,1,10,3,13,0.01,7,Snow,304
2012-10-26,35,25,14,22,17,10,100,72,44,30.50,30.34,30.17,10,7,0,14,2,20,0.00,6,Fog-Snow,195
2012-10-27,41,33,25,30,26,21,100,74,48,30.14,30.06,29.99,10,6,1,20,4,25,0.02,8,Snow,180
2012-10-28,53,43,33,36,33,30,96,70,44,29.99,29.94,29.91,10,9,5,28,8,37,0.01,4,Snow,261
2012-10-29,57,47,37,38,35,32,82,63,43,30.12,29.97,29.89,10,10,8,24,7,32,0.00,7,,264
2012-10-30,59,44,29,34,30,26,92,62,32,30.15,30.07,30.00,10,10,9,20,5,26,0.00,2,,217
2012-10-31,65,48,31,34,28,23,92,57,21,30.11,29.99,29.83,10,10,7,16,4,18,0.00,1,,177